User: anonymous   Login
Location: Vancouver
(49.2500°N, 123.1330°W)
Time: 16:40:16
(UTC-07:00)
Language:

Cosmos 2333 Rocket - Orbit

View from above orbital plane
View from above orbital plane
View from above satellite
View from above satellite

Ground track
Ground track

The orbit data is extracted from the following two-line orbital elements,

1 24298U 96051B   15142.52037579 -.00000144  00000-0 -51746-4 0  9995
2 24298 070.8460 217.1793 0018060 232.1847 220.8961 14.12419638964987
Epoch (UTC): 22 May 2015 12:29:20
Eccentricity: 0.0018060
inclination: 70.8460°
perigee height: 838 km
apogee height: 864 km
right ascension of ascending node: 217.1793°
argument of perigee: 232.1847°
revolutions per day: 14.12419638
mean anomaly at epoch: 220.8961°
orbit number at epoch: 96498

The dashed part of the orbit path shows where the satellite is in the earth's shadow,  

DLR